When you browse on this site, cookies collect data to enhance your experience and personalize the content and advertising you see.
Visit our Privacy Policy to learn more. By continuing to use the site, you agree to this use of cookies and data.
  • In United Kingdom
  • List of Countries
  • For 7 days
  • Water Temperature
  • Weather Map
  • Weather Widgets
  • user-avatar
    Login

    Hourly Weather Ngozi

    Today, 21 February, Friday

    Time Temperature Precipitation Wind Pressure Humidity
    00:00 +15°C° 0.1 mm 0 mps 617 mmHg 94%
    01:00 +16°C° 0.1 mm 1 mps 617 mmHg 94%
    02:00 +15°C° 0 mm 0 mps 617 mmHg 93%
    03:00 +14°C° 0 mm 0 mps 617 mmHg 93%
    04:00 +14°C° 0 mm 0 mps 616 mmHg 93%
    05:00 +14°C° 0 mm 0 mps 616 mmHg 94%
    06:00 +15°C° 0 mm 0 mps 617 mmHg 91%
    07:00 +17°C° 0 mm 0 mps 618 mmHg 89%
    08:00 +19°C° 0 mm 0 mps 620 mmHg 86%
    15:00 +25°C° 1.3 mm 2 mps 618 mmHg 75%
    16:00 +24°C° 1.3 mm 1 mps 618 mmHg 81%
    17:00 +23°C° 1.3 mm 1 mps 617 mmHg 86%
    18:00 +22°C° 0.3 mm 1 mps 617 mmHg 88%
    19:00 +18°C° 0.3 mm 0 mps 617 mmHg 89%
    20:00 +17°C° 0.3 mm 0 mps 617 mmHg 91%
    21:00 +17°C° 0 mm 0 mps 617 mmHg 91%
    22:00 +16°C° 0 mm 0 mps 617 mmHg 91%
    23:00 +16°C° 0 mm 0 mps 617 mmHg 92%

    Tomorrow, 22 February, Saturday

    Time Temperature Precipitation Wind Pressure Humidity
    00:00 +16°C° 0 mm 0 mps 617 mmHg 92%
    01:00 +16°C° 0 mm 1 mps 617 mmHg 92%
    02:00 +16°C° 0 mm 1 mps 616 mmHg 92%
    03:00 +15°C° 0 mm 0 mps 616 mmHg 92%
    04:00 +15°C° 0 mm 0 mps 616 mmHg 92%
    05:00 +15°C° 0 mm 0 mps 616 mmHg 93%
    06:00 +16°C° 0 mm 0 mps 617 mmHg 90%
    07:00 +17°C° 0 mm 0 mps 618 mmHg 88%
    08:00 +19°C° 0 mm 0 mps 619 mmHg 86%
    09:00 +21°C° 0.2 mm 0 mps 620 mmHg 77%
    10:00 +25°C° 0.2 mm 1 mps 620 mmHg 67%
    11:00 +26°C° 0.2 mm 2 mps 620 mmHg 58%
    12:00 +26°C° 0.3 mm 2 mps 620 mmHg 60%
    13:00 +27°C° 0.3 mm 2 mps 619 mmHg 61%
    14:00 +27°C° 0.3 mm 2 mps 618 mmHg 63%
    15:00 +26°C° 1.7 mm 2 mps 618 mmHg 71%
    16:00 +24°C° 1.7 mm 1 mps 617 mmHg 80%
    17:00 +21°C° 1.7 mm 0 mps 617 mmHg 89%
    18:00 +20°C° 0.3 mm 0 mps 617 mmHg 89%
    19:00 +19°C° 0.3 mm 0 mps 617 mmHg 90%
    20:00 +19°C° 0.3 mm 1 mps 617 mmHg 90%
    21:00 +17°C° 1.1 mm 0 mps 617 mmHg 91%
    22:00 +17°C° 1.1 mm 0 mps 617 mmHg 93%
    23:00 +16°C° 1.1 mm 0 mps 617 mmHg 94%

    Day after tomorrow, 23 February, Sunday

    Time Temperature Precipitation Wind Pressure Humidity
    00:00 +16°C° 0.4 mm 0 mps 617 mmHg 94%
    01:00 +16°C° 0.4 mm 0 mps 616 mmHg 94%
    02:00 +18°C° 0.4 mm 1 mps 616 mmHg 94%
    03:00 +15°C° 0 mm 0 mps 616 mmHg 94%
    04:00 +15°C° 0 mm 0 mps 616 mmHg 93%
    05:00 +15°C° 0 mm 0 mps 616 mmHg 93%
    06:00 +16°C° 0 mm 0 mps 617 mmHg 92%
    07:00 +17°C° 0 mm 0 mps 618 mmHg 91%
    08:00 +18°C° 0 mm 0 mps 619 mmHg 89%
    09:00 +21°C° 0.3 mm 1 mps 619 mmHg 85%
    10:00 +22°C° 0.3 mm 1 mps 619 mmHg 80%
    11:00 +24°C° 0.3 mm 2 mps 619 mmHg 75%
    12:00 +24°C° 0.6 mm 1 mps 619 mmHg 73%
    13:00 +25°C° 0.6 mm 1 mps 618 mmHg 72%
    14:00 +26°C° 0.6 mm 1 mps 618 mmHg 70%
    15:00 +25°C° 0.7 mm 1 mps 618 mmHg 72%
    16:00 +25°C° 0.7 mm 1 mps 617 mmHg 75%
    17:00 +23°C° 0.7 mm 0 mps 617 mmHg 77%
    18:00 +23°C° 0.5 mm 1 mps 617 mmHg 82%
    19:00 +21°C° 0.5 mm 1 mps 617 mmHg 86%
    20:00 +19°C° 0.5 mm 1 mps 617 mmHg 90%
    21:00 +19°C° 0.1 mm 1 mps 617 mmHg 91%
    22:00 +19°C° 0.1 mm 1 mps 617 mmHg 91%
    23:00 +19°C° 0.1 mm 1 mps 618 mmHg 91%

    24 February, Monday

    Time Temperature Precipitation Wind Pressure Humidity
    00:00 +19°C° 0.1 mm 1 mps 617 mmHg 92%
    01:00 +18°C° 0.1 mm 1 mps 617 mmHg 93%
    02:00 +18°C° 0.1 mm 1 mps 616 mmHg 94%
    03:00 +18°C° 0 mm 1 mps 617 mmHg 94%
    04:00 +16°C° 0 mm 0 mps 617 mmHg 94%
    05:00 +16°C° 0 mm 0 mps 617 mmHg 94%
    06:00 +18°C° 0.6 mm 1 mps 617 mmHg 94%
    07:00 +19°C° 0.6 mm 1 mps 618 mmHg 94%
    08:00 +19°C° 0.6 mm 1 mps 619 mmHg 95%
    09:00 +19°C° 1.4 mm 1 mps 618 mmHg 95%
    10:00 +19°C° 1.4 mm 1 mps 618 mmHg 95%
    11:00 +19°C° 1.4 mm 1 mps 618 mmHg 95%
    12:00 +20°C° 0.5 mm 1 mps 618 mmHg 90%
    13:00 +22°C° 0.5 mm 1 mps 618 mmHg 85%
    14:00 +21°C° 0.5 mm 0 mps 618 mmHg 80%
    15:00 +23°C° 0.6 mm 1 mps 618 mmHg 82%
    16:00 +23°C° 0.6 mm 1 mps 617 mmHg 85%
    17:00 +22°C° 0.6 mm 1 mps 617 mmHg 87%
    18:00 +21°C° 0.2 mm 1 mps 617 mmHg 89%
    19:00 +18°C° 0.2 mm 0 mps 617 mmHg 91%
    20:00 +16°C° 0.2 mm 0 mps 617 mmHg 93%
    21:00 +18°C° 0 mm 1 mps 618 mmHg 94%
    22:00 +18°C° 0 mm 1 mps 618 mmHg 94%
    23:00 +16°C° 0 mm 1 mps 618 mmHg 94%

    25 February, Tuesday

    Time Temperature Precipitation Wind Pressure Humidity
    00:00 +16°C° 0 mm 1 mps 618 mmHg 95%
    01:00 +16°C° 0 mm 1 mps 617 mmHg 95%
    02:00 +16°C° 0 mm 1 mps 617 mmHg 95%
    03:00 +16°C° 0.1 mm 1 mps 617 mmHg 95%
    04:00 +16°C° 0.1 mm 1 mps 617 mmHg 95%
    05:00 +16°C° 0.1 mm 1 mps 618 mmHg 95%
    06:00 +18°C° 0.1 mm 1 mps 618 mmHg 94%
    07:00 +19°C° 0.1 mm 1 mps 619 mmHg 93%
    08:00 +20°C° 0.1 mm 1 mps 619 mmHg 92%
    09:00 +20°C° 1.3 mm 1 mps 620 mmHg 89%
    10:00 +21°C° 1.3 mm 1 mps 620 mmHg 87%
    11:00 +22°C° 1.3 mm 1 mps 620 mmHg 85%
    12:00 +21°C° 1.2 mm 1 mps 619 mmHg 88%
    13:00 +20°C° 1.2 mm 1 mps 618 mmHg 91%
    14:00 +19°C° 1.2 mm 1 mps 617 mmHg 94%
    15:00 +19°C° 0.4 mm 1 mps 617 mmHg 94%
    16:00 +19°C° 0.4 mm 1 mps 617 mmHg 94%
    17:00 +19°C° 0.4 mm 1 mps 617 mmHg 94%
    18:00 +18°C° 0 mm 1 mps 617 mmHg 95%
    19:00 +18°C° 0 mm 1 mps 617 mmHg 95%
    20:00 +16°C° 0 mm 1 mps 618 mmHg 96%
    21:00 +15°C° 0 mm 0 mps 618 mmHg 96%
    22:00 +15°C° 0 mm 0 mps 618 mmHg 95%
    23:00 +15°C° 0 mm 0 mps 618 mmHg 95%

    26 February, Wednesday

    Time Temperature Precipitation Wind Pressure Humidity
    00:00 +15°C° 0 mm 0 mps 618 mmHg 95%
    01:00 +15°C° 0 mm 0 mps 618 mmHg 94%
    02:00 +15°C° 0 mm 0 mps 617 mmHg 94%
    03:00 +15°C° 0 mm 0 mps 617 mmHg 94%
    04:00 +15°C° 0 mm 0 mps 617 mmHg 93%
    05:00 +15°C° 0 mm 0 mps 617 mmHg 93%
    06:00 +16°C° 0 mm 0 mps 618 mmHg 91%
    07:00 +17°C° 0 mm 0 mps 619 mmHg 89%
    08:00 +17°C° 0 mm 0 mps 619 mmHg 87%
    09:00 +19°C° 0.4 mm 0 mps 620 mmHg 82%
    10:00 +21°C° 0.4 mm 0 mps 620 mmHg 77%
    11:00 +25°C° 0.4 mm 1 mps 621 mmHg 72%
    12:00 +25°C° 0.5 mm 1 mps 620 mmHg 68%
    13:00 +25°C° 0.5 mm 1 mps 619 mmHg 65%
    14:00 +25°C° 0.5 mm 1 mps 619 mmHg 61%
    15:00 +25°C° 0.3 mm 1 mps 618 mmHg 66%
    16:00 +24°C° 0.3 mm 1 mps 618 mmHg 71%
    17:00 +24°C° 0.3 mm 1 mps 618 mmHg 75%
    18:00 +20°C° 0.3 mm 0 mps 618 mmHg 80%
    19:00 +18°C° 0.3 mm 0 mps 617 mmHg 84%
    20:00 +17°C° 0.3 mm 0 mps 617 mmHg 88%
    21:00 +16°C° 0 mm 0 mps 617 mmHg 89%
    22:00 +16°C° 0 mm 0 mps 618 mmHg 90%
    23:00 +15°C° 0 mm 0 mps 618 mmHg 91%
    Show more